Location: Banff
(51.1667°N, 115.5667°W)
Time: 09:04:22
(UTC+00:00)

Envisat - Pass Details

Date: 28 November 2022
Orbit: 763 x 765 km, 98.2° (Epoch: 28 January)

Event Time Altitude Azimuth Distance (km) Brightness Sun altitude
Rises 12:25:47 0° 12° (NNE) 3,247 6.4 -26.5°
Reaches altitude 10° 12:28:07 10° 11° (N) 2,316 5.6 -26.1°
Enters shadow 12:32:13 55° 345° (NNW) 918 3.2 -25.5°
